Location: Bennemühlen
(52.5740°N, 9.7135°E)
Time: 05:50:25
(UTC+00:00)

Meteor 2-13 Rocket - Pass Details

Date: 19 May 2025
Orbit: 934 x 958 km, 82.5° (Epoch: 22 June)

Event Time Altitude Azimuth Distance (km) Brightness Sun altitude
Exits shadow 22:19:04 23° 183° (S) 1,891 5.4 -16.3°
Maximum altitude 22:23:03 81° 98° (E) 973 4.4 -16.5°
Drops below altitude 10° 22:29:12 10° 13° (NNE) 2,687 7.8 -16.7°
Sets 22:31:42 0° 12° (NNE) 3,633 8.7 -16.8°
